This is the latest recevied weather packets stored in our database for station/object WW3TRG. If no packets are shown the sender has not sent any weather packets the latest 10 day(s).
| Time | Temp. | Humidity | Pressure | Rain* | Wind** | Luminosity | Snow |
|---|---|---|---|---|---|---|---|
| 1778081143 | 16.11° C | 99% | 1008 hPa | 4.32 mm | - | 59 W/m² | - |
| 1778080841 | 16.11° C | 99% | 1008 hPa | 4.32 mm | - | 39 W/m² | - |
| 1778080539 | 16.11° C | 99% | 1007.9 hPa | 0 mm | - | 21 W/m² | - |
| 1778080236 | 16.67° C | 99% | 1007.8 hPa | 1.27 mm | - | 33 W/m² | - |
| 1778079932 | 16.67° C | 98% | 1007.9 hPa | 1.27 mm | - | 27 W/m² | - |
| 1778079629 | 16.67° C | 98% | 1007.8 hPa | 0 mm | - | 46 W/m² | - |
| 1778079326 | 16.67° C | 98% | 1007.7 hPa | 0 mm | - | 66 W/m² | - |
| 1778079023 | 16.67° C | 98% | 1007.6 hPa | 0 mm | - | 106 W/m² | - |
| 1778078720 | 16.67° C | 97% | 1007.7 hPa | 0.51 mm | - | 82 W/m² | - |
| 1778078417 | 16.67° C | 97% | 1007.7 hPa | 1.27 mm | - | 83 W/m² | - |
| 1778078115 | 16.67° C | 97% | 1007.7 hPa | 1.27 mm | - | 39 W/m² | - |
| 1778077813 | 16.67° C | 97% | 1007.8 hPa | 1.27 mm | - | 38 W/m² | - |
| 1778077510 | 16.67° C | 97% | 1007.9 hPa | 1.78 mm | - | 46 W/m² | - |
| 1778077208 | 16.67° C | 96% | 1008 hPa | 1.78 mm | - | 43 W/m² | - |
| 1778076906 | 17.22° C | 96% | 1008 hPa | 1.27 mm | - | 35 W/m² | - |
| 1778076604 | 16.67° C | 95% | 1008.1 hPa | 0.51 mm | - | 49 W/m² | - |
| 1778076301 | 16.67° C | 95% | 1007.8 hPa | 0 mm | - | 61 W/m² | - |
| 1778075998 | 16.67° C | 95% | 1008 hPa | 0.51 mm | - | 53 W/m² | - |
| 1778075695 | 17.22° C | 95% | 1007.9 hPa | 0.51 mm | - | 35 W/m² | - |
| 1778075391 | 17.22° C | 94% | 1007.7 hPa | 0 mm | - | 45 W/m² | - |
| 1778075087 | 17.22° C | 93% | 1007.9 hPa | 0.51 mm | - | 62 W/m² | - |
| 1778074784 | 17.22° C | 93% | 1007.8 hPa | 0.51 mm | - | 92 W/m² | - |
| 1778074481 | 16.67° C | 93% | 1007.9 hPa | 0 mm | - | 83 W/m² | - |
| 1778074178 | 16.67° C | 94% | 1008.1 hPa | 0 mm | - | 42 W/m² | - |
| 1778073875 | 17.22° C | 93% | 1007.9 hPa | 0 mm | - | 40 W/m² | - |
* Rain latest hour (hover to see other rain measurements)
** Current wind speed in m/s (hover to see current wind gust speed)